Philadelphia, PA

3:50 PM EST on December 06, 2016 (GMT -0500)
Philadelphia International

Weather History for KPHL - February, 2012

Change the Weather History Date:

Sunday, February 19, 2012

  Actual Average Record
Temperature  
Mean Temperature 40 °F 36 °F  
Max Temperature 46 °F 45 °F 68 °F (1948)
Min Temperature 33 °F 28 °F 3 °F (1903)
Degree Days  
Heating Degree Days 25 28  
Month to date heating degree days 482 573  
Since 1 July heating degree days 2633 3236  
Cooling Degree Days 0 0  
Month to date cooling degree days 0 0  
Year to date cooling degree days 0 0  
Moisture  
Dew Point 21 °F    
Average Humidity 49    
Maximum Humidity 61    
Minimum Humidity 37    
Precipitation  
Precipitation 0.00 in 0.09 in 1.65 in (1927)
Month to date precipitation 0.52 1.79  
Year to date precipitation 3.11 4.82  
Snow  
Snow 0.00 in 0.30 in 13.90 in (1979)
Month to date snowfall 1.2 6.5  
Since 1 July snowfall 4.0 16.7  
Snow Depth 0.00 in    
Sea Level Pressure  
Sea Level Pressure 30.03 in    
Wind  
Wind Speed 8 mph (NNE)    
Max Wind Speed 17 mph    
Max Gust Speed 23 mph    
Visibility 10 miles    
Events      
T = Trace of Precipitation, MM = Missing Value Source: NWS Daily Summary

Daily Weather History Graph

Daily Weather History Graph

Search for Another Location

Airport or City:

Trip Planner

Search our weather history database for the weather conditions in past years. The results will help you decide how hot, cold, wet, or windy it might be!

Date:

Astronomy

Feb. 19, 2012 Rise Set
Actual Time 6:49 AM EST 5:41 PM EST
Civil Twilight 6:21 AM EST 6:08 PM EST
Nautical Twilight 5:50 AM EST 6:40 PM EST
Astronomical Twilight 5:18 AM EST 7:11 PM EST
Moon 5:08 AM EST (2/19) 3:39 PM EST (2/19)
Length of Visible Light 11h 47m
Length of Day
10h 52m
Waning Crescent, 5% of the Moon is Illuminated
Feb 19
Waning Crescent
Feb 21
New
Feb 29
First Quarter
Mar 8
Full
Mar 14
Last Quarter

Hourly Weather History & Observations

Time (EST) Temp. Windchill Dew Point Humidity Pressure Visibility Wind Dir Wind Speed Gust Speed Precip Events Conditions
12:54 AM 39.0 °F 31.8 °F 19.9 °F 46% 30.08 in 10.0 mi NNW 11.5 mph 16.1 mph N/A   Overcast
1:54 AM 37.9 °F 34.4 °F 19.9 °F 48% 30.08 in 10.0 mi North 4.6 mph - N/A   Mostly Cloudy
2:54 AM 37.0 °F 32.4 °F 21.0 °F 52% 30.08 in 10.0 mi NNW 5.8 mph - N/A   Overcast
3:54 AM 37.0 °F 33.3 °F 21.0 °F 52% 30.09 in 10.0 mi NNW 4.6 mph - N/A   Mostly Cloudy
4:54 AM 34.0 °F 29.8 °F 21.0 °F 59% 30.08 in 10.0 mi North 4.6 mph - N/A   Scattered Clouds
5:54 AM 34.0 °F 27.2 °F 21.9 °F 61% 30.08 in 10.0 mi North 8.1 mph - N/A   Scattered Clouds
6:54 AM 34.0 °F 27.2 °F 21.9 °F 61% 30.08 in 10.0 mi North 8.1 mph - N/A   Scattered Clouds
7:54 AM 35.1 °F 27.9 °F 21.9 °F 59% 30.09 in 10.0 mi North 9.2 mph - N/A   Mostly Cloudy
8:54 AM 37.0 °F 28.1 °F 21.0 °F 52% 30.11 in 10.0 mi NE 15.0 mph 19.6 mph N/A   Mostly Cloudy
9:54 AM 39.9 °F 33.4 °F 21.0 °F 47% 30.11 in 10.0 mi ENE 10.4 mph - N/A   Mostly Cloudy
10:54 AM 42.1 °F 36.6 °F 21.9 °F 45% 30.10 in 10.0 mi ENE 9.2 mph - N/A   Mostly Cloudy
11:54 AM 43.0 °F 39.5 °F 21.9 °F 43% 30.09 in 10.0 mi ENE 5.8 mph - N/A   Mostly Cloudy
12:54 PM 45.0 °F 42.6 °F 21.9 °F 40% 30.05 in 10.0 mi East 4.6 mph - N/A   Mostly Cloudy
1:54 PM 45.0 °F 41.2 °F 23.0 °F 42% 30.02 in 10.0 mi East 6.9 mph - N/A   Mostly Cloudy
2:54 PM 46.0 °F 41.4 °F 21.9 °F 39% 30.00 in 10.0 mi East 9.2 mph - N/A   Mostly Cloudy
3:54 PM 46.0 °F 41.4 °F 21.0 °F 37% 29.97 in 10.0 mi ENE 9.2 mph - N/A   Mostly Cloudy
4:54 PM 42.1 °F 38.4 °F 21.0 °F 43% 29.97 in 10.0 mi ENE 5.8 mph - N/A   Mostly Cloudy
5:54 PM 42.1 °F 36.6 °F 19.9 °F 41% 29.96 in 10.0 mi NE 9.2 mph - N/A   Mostly Cloudy
6:54 PM 42.1 °F 36.6 °F 19.0 °F 40% 29.95 in 10.0 mi NE 9.2 mph - N/A   Mostly Cloudy
7:54 PM 41.0 °F 34.7 °F 19.0 °F 41% 29.93 in 10.0 mi ENE 10.4 mph - N/A   Mostly Cloudy
8:54 PM 39.9 °F 35.8 °F 19.9 °F 45% 29.95 in 10.0 mi NE 5.8 mph - N/A   Mostly Cloudy
9:54 PM 41.0 °F 35.2 °F 19.0 °F 41% 29.96 in 10.0 mi NE 9.2 mph - N/A   Mostly Cloudy
10:54 PM 39.9 °F 33.4 °F 19.0 °F 43% 29.95 in 10.0 mi North 10.4 mph - N/A   Mostly Cloudy
11:54 PM 39.0 °F 31.0 °F 19.9 °F 46% 29.96 in 10.0 mi North 13.8 mph - N/A   Overcast